Torna al catalogo

DELTA 1 DEB

AttivoSSO
NORAD 40771·DEBRIS·🇺🇸 United States

Lanciato Jul 29, 1976 da Vandenberg Space Force Base

Loading…

Prossimi Passaggi (prossime 24 ore)

TLE

AggiornatoSource: Space-Track

Epoca: Sep 14, 2026, 10:49 UTC

1 40771U 76077GQ  26257.45090470 -.00000003  00000-0  32154-3 0  9999
2 40771 102.2097 238.5825 0014723  50.2335 104.4937 12.40121241549802

Traccia DELTA 1 DEB in tempo reale con AllMySat

Download on the App Store